Orbital Elements at Epoch 2459000.5 (2020-May-31.0) TDB
Reference: JPL 10 (heliocentric ecliptic J2000)
Element | Value | Uncertainty (1-sigma) | Units |
e | .09375426630163992 | 8.2588e-08 | |
a | 2.575781504096557 | 3.5771e-08 | au |
q | 2.334290999026649 | 1.9098e-07 | au |
i | 1.304617379390912 | 6.8234e-06 | deg |
node | 239.4374730116139 | 0.00047782 | deg |
peri | 30.42953587471704 | 0.0004868 | deg |
M | 122.0979340928637 | 8.4101e-05 | deg |
tp | 2458488.384674917675 (2019-Jan-04.88467492) | 0.00035872 | TDB |
period | 1509.947882405755 4.13 | 3.1454e-05 8.612e-08 | d yr |
n | .2384188250434331 | 4.9665e-09 | deg/d |
Q | 2.817272009166464 | 3.9125e-08 | au |
|
| | Orbit Determination Parameters
Additional Information
|